DateTimeUTC,F1_A11,F1_S11,BsB_S11,BsG_S11,BsR_S11,BbsB_S11,BbsG_S11,BbsR_S11,BaB_A11,BaG_A11,BaR_A11,Tu_S11,T_S11,Uu_S11,U_S11,P_S11,T1_A11
2021-01-14T00:00:00Z,00000200,21000000,,,,,,,0000.07,-000.08,-000.14,17.0,24.1,,00.0,0647.6,30.9
2021-01-14T00:01:00Z,00000200,21000000,,,,,,,-000.29,-000.44,-000.02,17.0,24.1,,00.0,0647.6,30.9
2021-01-14T00:02:00Z,00000200,21000000,,,,,,,0000.23,0000.66,0000.00,17.0,24.1,,00.0,0647.6,30.9
2021-01-14T00:03:00Z,00000200,61000000,,,,,,,0000.15,0000.28,0000.52,17.0,24.1,,00.0,0647.6,30.9
2021-01-14T00:04:00Z,00000200,41000000,0000.53,0000.17,0000.11,0000.16,0000.09,0000.32,-000.02,-000.01,-000.10,17.1,23.9,00.1,00.1,0648.4,30.9
2021-01-14T00:05:00Z,00000200,01000000,-000.10,0000.13,0000.10,0000.79,-000.16,-000.22,0000.10,-000.08,0000.19,17.2,23.8,00.1,00.0,0648.5,30.9
2021-01-14T00:06:00Z,00000200,01000000,-000.11,-000.01,0000.26,-000.24,0000.35,-000.03,0000.27,0000.26,-000.23,17.2,23.8,00.1,00.1,0648.5,30.9
2021-01-14T00:07:00Z,00000200,01000000,0000.35,-000.08,0000.10,-000.10,0000.01,0000.16,0000.24,0000.08,0000.43,17.2,23.8,00.1,00.0,0648.5,30.9
2021-01-14T00:08:00Z,00000200,01000000,0000.18,-000.03,0000.05,0000.36,0000.14,-000.01,-000.12,-000.07,-000.12,17.2,23.8,00.1,00.1,0648.5,30.9
2021-01-14T00:09:00Z,00000200,01000000,0000.09,0000.07,0000.20,-000.13,-000.11,-000.20,-000.00,-000.16,-000.01,17.1,23.8,00.1,00.1,0648.5,30.9
2021-01-14T00:10:00Z,00000200,01000000,0000.39,0000.24,0000.21,0000.13,-000.00,-000.01,0000.13,0000.04,-000.15,17.1,23.8,00.1,00.1,0648.5,30.9
2021-01-14T00:11:00Z,00000200,01000000,0000.16,0000.36,0000.08,0000.61,0000.18,-000.07,0000.08,0000.11,-000.15,17.1,23.8,00.1,00.1,0648.5,30.9
2021-01-14T00:12:00Z,00000200,01000000,-000.18,0000.18,0000.05,0000.10,0000.20,0000.03,0000.02,0000.41,0000.18,17.1,23.7,00.1,00.1,0648.5,30.9
2021-01-14T00:13:00Z,00000200,01000000,-000.17,0000.05,0000.07,0000.05,0000.06,-000.02,0000.28,0000.17,0000.53,17.1,23.7,00.1,00.1,0648.4,30.9
2021-01-14T00:14:00Z,00000200,01000000,0000.23,-000.05,0000.34,0000.08,0000.01,0000.03,0000.01,-000.09,-000.21,17.1,23.7,00.2,00.1,0648.4,30.9
2021-01-14T00:15:00Z,00000200,01000000,0001.06,0000.25,0000.18,-000.05,-000.15,-000.18,0000.22,-000.03,0000.11,17.1,23.7,00.1,00.1,0648.4,30.9
2021-01-14T00:16:00Z,00000200,01000000,0000.64,0000.02,0000.25,0000.30,0000.16,0000.11,0000.00,0000.18,0000.13,17.1,23.7,00.1,00.1,0648.4,30.9
2021-01-14T00:17:00Z,00000200,01000000,0000.33,0000.18,-000.03,0000.13,0000.15,-000.13,-000.09,-000.06,0000.17,17.1,23.7,00.2,00.1,0648.4,30.9
2021-01-14T00:18:00Z,00000200,01000000,0000.30,0000.26,0000.19,-000.04,-000.25,0000.03,0000.06,-000.24,-000.21,17.1,23.7,00.2,00.1,0648.4,30.9
2021-01-14T00:19:00Z,00000200,01000000,-000.02,0000.43,0000.11,-000.19,0000.07,-000.08,0000.22,0000.40,0000.17,17.1,23.7,00.2,00.1,0648.4,30.9
2021-01-14T00:20:00Z,00000200,01000000,0000.42,0000.05,0000.40,0000.03,0000.04,0000.02,0000.46,0000.44,0000.45,17.2,23.7,00.3,00.2,0648.5,30.9
2021-01-14T00:21:00Z,00000200,01000000,0001.06,0000.18,-000.04,0000.72,-000.00,0000.07,-000.00,-000.18,0000.12,17.3,23.8,00.2,00.1,0648.4,30.9
2021-01-14T00:22:00Z,00000200,01000000,0000.22,0000.10,0000.22,0000.17,-000.09,0000.05,-000.11,0000.30,0000.06,17.3,23.8,00.2,00.1,0648.4,31.0
2021-01-14T00:23:00Z,00000200,01000000,0000.45,0000.16,-000.17,0000.32,0000.02,-000.14,-000.12,-000.13,-000.45,17.3,23.8,00.3,00.2,0648.4,31.0
2021-01-14T00:24:00Z,00000200,01000000,0000.30,0000.14,0000.11,0000.66,-000.10,0000.01,0000.40,0000.35,0000.49,17.4,23.8,00.3,00.2,0648.3,30.9
2021-01-14T00:25:00Z,00000200,01000000,0000.37,0000.32,0000.23,0000.58,0000.02,0000.08,0000.31,0000.09,-000.10,17.4,23.8,00.3,00.2,0648.3,30.9
2021-01-14T00:26:00Z,00000200,01000000,-000.41,0000.24,0000.29,0000.22,0000.08,0000.17,-000.27,0000.13,0000.08,17.4,23.8,00.3,00.2,0648.3,30.9
2021-01-14T00:27:00Z,00000200,01000000,0000.36,0000.25,0000.13,-000.26,0000.22,0000.10,0000.42,0000.05,0000.23,17.4,23.8,00.3,00.2,0648.4,30.9
2021-01-14T00:28:00Z,00000200,01000000,0000.06,0000.29,0000.12,-000.12,-000.05,-000.25,0000.38,-000.12,-000.29,17.3,23.8,00.3,00.2,0648.3,30.9
2021-01-14T00:29:00Z,00000200,01000000,0000.24,0000.25,0000.14,0000.20,-000.18,-000.25,-000.24,0000.12,0000.14,17.3,23.8,00.5,00.3,0648.3,30.9
2021-01-14T00:30:00Z,00000200,01000000,-000.11,-000.19,0000.19,0000.00,-000.17,-000.21,0000.25,0000.24,0000.18,17.3,23.8,00.4,00.3,0648.3,30.9
2021-01-14T00:31:00Z,00000200,01000000,0000.02,0000.08,0000.29,0000.41,0000.05,-000.29,-000.09,0000.31,0000.38,17.3,23.8,00.4,00.3,0648.4,30.9
2021-01-14T00:32:00Z,00000200,01000000,0000.75,0000.20,0000.07,0000.69,0000.08,-000.05,-000.03,-000.06,-000.38,17.3,23.8,00.4,00.3,0648.3,30.9
2021-01-14T00:33:00Z,00000200,01000000,0000.05,0000.40,0000.18,0000.03,-000.04,0000.04,0000.28,-000.15,0000.35,17.3,23.8,00.5,00.3,0648.4,30.9
2021-01-14T00:34:00Z,00000200,01000000,0000.20,0000.40,0000.16,-000.17,-000.22,-000.04,-000.05,0000.37,-000.15,17.3,23.8,00.5,00.3,0648.3,30.9
2021-01-14T00:35:00Z,00000200,01000000,0000.15,0000.60,0000.39,0000.09,-000.18,0000.02,0000.09,-000.17,0000.21,17.4,23.8,00.4,00.3,0648.3,30.9
2021-01-14T00:36:00Z,00000200,01000000,0000.27,-000.06,0000.16,-000.73,0000.05,0000.15,0000.33,0000.08,0000.14,17.4,23.8,00.4,00.3,0648.3,30.9
2021-01-14T00:37:00Z,00000200,01000000,0000.28,0000.28,0000.10,0000.16,0000.19,0000.02,0000.09,0000.23,-000.18,17.4,23.8,00.4,00.3,0648.3,31.0
2021-01-14T00:38:00Z,00000200,01000000,0000.33,0000.14,0000.13,0000.20,-000.13,-000.19,0000.05,0000.40,0000.06,17.4,23.8,00.6,00.4,0648.3,31.0
2021-01-14T00:39:00Z,00000200,01000000,0000.57,-000.08,0000.26,-000.09,0000.08,-000.08,0000.20,-000.35,0000.21,17.4,23.9,00.5,00.3,0648.3,31.0
2021-01-14T00:40:00Z,00000200,01000000,0000.20,0000.32,0000.35,-000.22,-000.15,0000.14,-000.29,0000.36,-000.06,17.4,23.9,00.5,00.3,0648.3,30.9
2021-01-14T00:41:00Z,00000200,01000000,0000.47,0000.16,0000.08,0000.05,-000.01,0000.01,0000.25,-000.08,0000.19,17.4,23.8,00.5,00.4,0648.3,31.0
2021-01-14T00:42:00Z,00000200,01000000,0000.47,0000.04,0000.13,0000.12,0000.13,-000.47,0000.19,0000.32,0000.26,17.4,23.9,00.6,00.4,0648.3,30.9
2021-01-14T00:43:00Z,00000200,01000000,0000.85,-000.08,-000.05,-000.14,0000.17,0000.16,-000.14,-000.08,-000.24,17.4,23.8,00.5,00.4,0648.3,30.9
2021-01-14T00:44:00Z,00000200,01000000,-000.16,0000.11,0000.20,0000.81,0000.01,0000.07,0000.26,0000.05,-000.27,17.4,23.8,00.7,00.5,0648.3,30.9
2021-01-14T00:45:00Z,00000200,01000000,-000.18,0000.28,0000.26,0000.20,-000.20,-000.02,0000.01,0000.25,0000.65,17.4,23.8,00.6,00.4,0648.3,30.9
2021-01-14T00:46:00Z,00000200,01000000,-000.15,0000.24,0000.08,-000.24,-000.06,-000.15,0000.38,-000.17,-000.26,17.4,23.8,00.7,00.4,0648.3,30.9
2021-01-14T00:47:00Z,00000200,01000000,0000.33,0000.00,0000.04,-000.14,0000.18,0000.18,-000.24,0000.20,-000.03,17.4,23.8,00.7,00.5,0648.3,31.0
2021-01-14T00:48:00Z,00000200,01000000,0000.95,0000.25,0000.01,0000.19,0000.13,-000.12,0000.19,0000.09,0000.23,17.4,23.8,00.8,00.5,0648.3,30.9
2021-01-14T00:49:00Z,00000200,01000000,0000.43,0000.38,0000.24,0000.68,-000.18,0000.23,0000.21,0000.11,0000.14,17.3,23.8,00.7,00.5,0648.3,30.9
2021-01-14T00:50:00Z,00000200,01000000,0001.22,0000.08,0000.03,0000.03,0000.06,-000.08,0000.13,-000.07,0000.20,17.3,23.8,00.8,00.5,0648.2,30.9
2021-01-14T00:51:00Z,00000200,01000000,0000.15,0000.00,-000.03,0000.34,-000.24,-000.03,-000.14,-000.13,-000.38,17.3,23.8,00.7,00.4,0648.2,30.9
2021-01-14T00:52:00Z,00000200,01000000,0001.06,0000.49,0000.27,0000.19,0000.19,0000.09,0000.11,0000.32,0000.22,17.3,23.8,00.8,00.5,0648.2,30.9
2021-01-14T00:53:00Z,00000200,01000000,0000.13,0000.26,0000.13,0000.41,-000.05,-000.02,0000.27,0000.04,0000.16,17.3,23.8,00.7,00.5,0648.2,30.9
2021-01-14T00:54:00Z,00000200,01000000,0000.63,0000.22,-000.15,-000.72,-000.10,-000.33,-000.45,-000.05,0000.06,17.3,23.8,00.7,00.5,0648.2,30.9
2021-01-14T00:55:00Z,00000200,01000000,-000.81,0000.14,-000.01,0000.42,-000.05,0000.10,0000.09,0000.07,0000.01,17.3,23.8,00.9,00.6,0648.2,30.9
2021-01-14T00:56:00Z,00000200,01000000,-000.04,-000.06,0000.22,0000.05,-000.25,0000.08,0000.09,0000.06,0000.17,17.2,23.8,00.9,00.6,0648.1,30.9
2021-01-14T00:57:00Z,00000200,41000000,,,,,,,0000.01,-000.33,-000.60,17.3,23.8,01.2,00.8,0648.1,30.9
2021-01-14T00:58:00Z,00000200,61000000,,,,,,,0000.20,0000.50,0000.13,16.9,23.9,00.3,00.2,0647.2,30.9
2021-01-14T00:59:00Z,00000200,21000000,,,,,,,-000.09,-000.54,-000.10,16.9,24.0,00.3,00.2,0647.2,30.9
